"SCET";"TARGET";"ELECTRON_DENSITY";"ERROR_FLAG";"ELECTRON_DENSITY_ERROR";"FREQ_FCE";"MEASURED_VALUE";"MEASURED_ITEM";"FREQ_PLASMA";"FREQ_UPPER_HYBRID";"FREQ_R_EQUALS_ZERO";"FREQ_L_EQUALS_ZERO";"ORBIT_NUMBER";"SATURN_RADIUS";"SATURN_IAU_LONGITUDE";"SATURN_SLS4_S_LONGITUDE";"SATURN_SLS4_N_LONGITUDE";"SATURN_SLS5_S_LONGITUDE";"SATURN_SLS5_N_LONGITUDE";"SATURN_LOCAL_TIME";"SATURN_KRONOGRAPHIC_LATITUDE";"SATURN_MAGNETIC_LATITUDE";"SATURN_L";"SATURN_L_OFFSET";"SATURN_SOLAR_EQUATORIAL_X";"SATURN_SOLAR_EQUATORIAL_Y";"SATURN_SOLAR_EQUATORIAL_Z";"SATURN_ALTITUDE";"ENCELADUS_ENCOUNTER_NUMBER";"ENCELADUS_RADIUS";"ENCELADUS_COROTATIONAL_X";"ENCELADUS_COROTATIONAL_Y";"ENCELADUS_COROTATIONAL_Z";"ENCELADUS_TRUE_ANOMALY";"ENCELADUS_PERIAPSIS_TIME";"JUPITER_RADIUS";"JUPITER_SYSTEMIII_LONGITUDE";"JUPITER_MAGNETIC_LATITUDE";"JUPITER_MAGNETIC_LOCAL_TIME";"JUPITER_L";"IO_PHASE";"EARTH_RADIUS";"EARTH_MAGNETIC_LATITUDE";"EARTH_LOCAL_TIME";"EARTH_L"
"[UTC]";"[0=Saturn, 1=Enceladus, 2=Jupiter, 3=Earth]";"[cm-3]";"[0=automated, 1=manual]";"[normalized density error]";"[Hz]";"[Hz]";"[0=upper hybrid frequency, 1=plasma frequency cutoff]";"[Hz]";"[Hz]";"[Hz]";"[Hz}";"[0, A, B, C, 3, 4, ... , 292, 293]";"[Rs where 1Rs=60268km]";"[degrees]";"[degrees]";"[degrees]";"[degrees]";"[degrees]";"[hours]";"[degrees]";"[degrees where offset=2293km north]";"[Rs where 1Rs=60268km]";"[Rs where 1Rs=60268km and offset=2293km north]";"[Rs where 1Rs=60268km]";"[Rs where 1Rs=60268km]";"[Rs where 1Rs=60268km]";"[km where ellipsoid a,b=60268km and c=54364km]";"[E0, E1, E2, ... , E21, E22]";"[Renc where 1Renc=252.1km]";"[Renc where 1Renc=252.1km]";"[Renc where 1Renc=252.1km]";"[Renc where 1Renc=252.1km]";"[degrees]";"[UTC]";"[Rj where 1Rj=71492km]";"[degrees]";"[degrees using JRM09 model]";"[hours using JRM09 model]";"[Rj where 1Rj=71492km]";"[degrees]";"[Re where 1Re=6378.1366km]";"[degrees]";"[hours]";"[Re where 1Re=6378.1366km]"
2015-05-29T00:00:07.746Z;0;2.3770e+01;0;     0.144;  1307.124;  43804.086; 0;  43784.578;  43804.086;  44443.020;  43135.895;216;   6.990; 345.957;;; 133.498; 333.497;  21.022;   0.083;  -0.228;   6.990;   6.983;  -4.972;   4.913;   0.010;;;;;;;;;;;;;;;;;;
2015-05-29T00:00:23.746Z;0;2.2500e+01;0;     0.122;  1307.124;  42611.945; 0;  42591.891;  42611.945;  43250.469;  41943.344;216;   6.992; 346.086;;; 133.627; 333.623;  21.024;   0.083;  -0.229;   6.992;   6.985;  -4.975;   4.913;   0.010;;;;;;;;;;;;;;;;;;
2015-05-29T00:00:39.746Z;0;2.1160e+01;0;     0.139;  1307.124;  41324.711; 0;  41304.035;  41324.711;  41962.766;  40655.641;216;   6.994; 346.214;;; 133.757; 333.750;  21.025;   0.083;  -0.229;   6.994;   6.987;  -4.978;   4.912;   0.010;;;;;;;;;;;;;;;;;;
2015-05-29T00:00:55.746Z;0;2.2310e+01;0;     0.126;  1307.124;  42440.152; 0;  42420.020;  42440.152;  43078.613;  41771.492;216;   6.996; 346.343;;; 133.886; 333.877;  21.027;   0.083;  -0.229;   6.996;   6.989;  -4.981;   4.912;   0.010;;;;;;;;;;;;;;;;;;
2015-05-29T00:01:27.746Z;0;2.2960e+01;0;     0.138;  1291.388;  43045.016; 0;  43025.641;  43045.016;  43676.180;  42384.789;216;   7.000; 346.601;;; 134.146; 334.131;  21.030;   0.083;  -0.229;   7.000;   6.992;  -4.988;   4.911;   0.010;;;;;;;;;;;;;;;;;;
2015-05-29T00:01:43.746Z;0;2.2550e+01;0;     0.142;  1291.388;  42664.348; 0;  42644.801;  42664.348;  43295.383;  42003.992;216;   7.002; 346.729;;; 134.275; 334.258;  21.031;   0.083;  -0.229;   7.002;   6.994;  -4.991;   4.910;   0.010;;;;;;;;;;;;;;;;;;
2015-05-29T00:01:59.746Z;0;2.2930e+01;0;     0.122;  1291.388;  43019.934; 0;  43000.547;  43019.934;  43651.090;  42359.699;216;   7.004; 346.858;;; 134.405; 334.385;  21.032;   0.082;  -0.229;   7.004;   6.996;  -4.994;   4.910;   0.010;;;;;;;;;;;;;;;;;;
2015-05-29T00:02:15.745Z;0;2.1150e+01;0;     0.144;  1262.716;  41317.754; 0;  41298.453;  41317.754;  41934.637;  40671.922;216;   7.006; 346.987;;; 134.535; 334.513;  21.034;   0.082;  -0.229;   7.006;   6.998;  -4.998;   4.910;   0.010;;;;;;;;;;;;;;;;;;
2015-05-29T00:02:31.745Z;0;2.4910e+01;0;     0.119;  1262.716;  44832.945; 0;  44815.160;  44832.945;  45450.965;  44188.250;216;   7.008; 347.116;;; 134.665; 334.640;  21.035;   0.082;  -0.229;   7.008;   7.000;  -5.001;   4.909;   0.010;;;;;;;;;;;;;;;;;;
2015-05-29T00:02:47.745Z;0;2.2880e+01;0;     0.119;  1262.716;  42973.211; 0;  42954.656;  42973.211;  43590.652;  42327.938;216;   7.010; 347.245;;; 134.795; 334.767;  21.037;   0.082;  -0.229;   7.010;   7.002;  -5.004;   4.909;   0.010;;;;;;;;;;;;;;;;;;
2015-05-29T00:03:03.745Z;0;2.4350e+01;0;     0.130;  1278.396;  44328.438; 0;  44310.000;  44328.438;  44953.809;  43675.410;216;   7.011; 347.374;;; 134.925; 334.895;  21.038;   0.082;  -0.229;   7.012;   7.004;  -5.007;   4.908;   0.010;;;;;;;;;;;;;;;;;;
2015-05-29T00:03:19.745Z;0;2.1310e+01;0;     0.124;  1278.396;  41471.254; 0;  41451.547;  41471.254;  42095.672;  40817.273;216;   7.013; 347.503;;; 135.056; 335.022;  21.040;   0.082;  -0.229;   7.013;   7.006;  -5.011;   4.908;   0.010;;;;;;;;;;;;;;;;;;
2015-05-29T00:03:35.745Z;0;2.1110e+01;0;     0.144;  1278.396;  41278.461; 0;  41258.660;  41278.461;  41902.809;  40624.414;216;   7.015; 347.631;;; 135.186; 335.150;  21.041;   0.082;  -0.229;   7.015;   7.008;  -5.014;   4.907;   0.010;;;;;;;;;;;;;;;;;;
2015-05-29T00:03:51.745Z;0;2.2400e+01;0;     0.139;  1278.396;  42516.031; 0;  42496.809;  42516.031;  43140.812;  41862.414;216;   7.017; 347.760;;; 135.317; 335.278;  21.042;   0.082;  -0.229;   7.017;   7.010;  -5.017;   4.907;   0.010;;;;;;;;;;;;;;;;;;
2015-05-29T00:04:07.745Z;0;2.0830e+01;0;     0.155;  1279.152;  41005.488; 0;  40985.531;  41005.488;  41630.098;  40350.945;216;   7.019; 347.889;;; 135.447; 335.406;  21.044;   0.081;  -0.229;   7.019;   7.012;  -5.020;   4.906;   0.010;;;;;;;;;;;;;;;;;;
2015-05-29T00:04:23.745Z;0;2.2600e+01;0;     0.139;  1279.152;  42705.215; 0;  42686.055;  42705.215;  43330.422;  42051.270;216;   7.021; 348.018;;; 135.578; 335.534;  21.045;   0.081;  -0.229;   7.021;   7.014;  -5.024;   4.906;   0.010;;;;;;;;;;;;;;;;;;
2015-05-29T00:04:39.744Z;0;2.2880e+01;0;     0.114;  1279.152;  42969.477; 0;  42950.434;  42969.477;  43594.770;  42315.617;216;   7.023; 348.147;;; 135.708; 335.662;  21.047;   0.081;  -0.229;   7.023;   7.016;  -5.027;   4.905;   0.010;;;;;;;;;;;;;;;;;;
2015-05-29T00:04:55.744Z;0;2.2470e+01;0;     0.162;  1279.152;  42589.102; 0;  42569.887;  42589.102;  43214.270;  41935.117;216;   7.025; 348.276;;; 135.839; 335.790;  21.048;   0.081;  -0.229;   7.025;   7.018;  -5.030;   4.905;   0.010;;;;;;;;;;;;;;;;;;
2015-05-29T00:05:11.744Z;0;2.2190e+01;0;     0.133;  1267.028;  42323.965; 0;  42304.996;  42323.965;  42943.254;  41676.223;216;   7.027; 348.405;;; 135.970; 335.918;  21.049;   0.081;  -0.229;   7.027;   7.020;  -5.033;   4.904;   0.010;;;;;;;;;;;;;;;;;;
2015-05-29T00:05:27.744Z;0;2.2650e+01;0;     0.142;  1267.028;  42753.879; 0;  42735.102;  42753.879;  43373.309;  42106.281;216;   7.029; 348.534;;; 136.101; 336.046;  21.051;   0.081;  -0.229;   7.029;   7.022;  -5.036;   4.904;   0.010;;;;;;;;;;;;;;;;;;
2015-05-29T00:05:43.744Z;0;2.3220e+01;0;     0.120;  1267.028;  43291.355; 0;  43272.809;  43291.355;  43910.961;  42643.934;216;   7.031; 348.663;;; 136.232; 336.175;  21.052;   0.081;  -0.229;   7.031;   7.024;  -5.040;   4.903;   0.010;;;;;;;;;;;;;;;;;;
2015-05-29T00:05:59.744Z;0;2.2250e+01;0;     0.131;  1267.028;  42373.969; 0;  42355.023;  42373.969;  42993.273;  41726.246;216;   7.033; 348.792;;; 136.363; 336.303;  21.054;   0.081;  -0.229;   7.033;   7.026;  -5.043;   4.903;   0.010;;;;;;;;;;;;;;;;;;
2015-05-29T00:06:15.744Z;0;2.1520e+01;0;     0.131;  1274.448;  41682.055; 0;  41662.566;  41682.055;  42304.664;  41030.215;216;   7.035; 348.921;;; 136.494; 336.432;  21.055;   0.080;  -0.229;   7.035;   7.028;  -5.046;   4.902;   0.010;;;;;;;;;;;;;;;;;;
2015-05-29T00:06:31.744Z;0;2.2670e+01;0;     0.121;  1274.448;  42772.145; 0;  42753.152;  42772.145;  43395.125;  42120.680;216;   7.037; 349.050;;; 136.625; 336.560;  21.056;   0.080;  -0.229;   7.037;   7.030;  -5.049;   4.902;   0.010;;;;;;;;;;;;;;;;;;
2015-05-29T00:06:47.744Z;0;2.1230e+01;0;     0.117;  1274.448;  41399.215; 0;  41379.594;  41399.215;  42021.723;  40747.277;216;   7.039; 349.179;;; 136.757; 336.689;  21.058;   0.080;  -0.229;   7.039;   7.032;  -5.053;   4.901;   0.010;;;;;;;;;;;;;;;;;;
2015-05-29T00:07:03.744Z;0;2.1180e+01;0;     0.131;  1279.544;  41343.992; 0;  41324.188;  41343.992;  41968.910;  40689.367;216;   7.041; 349.308;;; 136.888; 336.818;  21.059;   0.080;  -0.229;   7.041;   7.034;  -5.056;   4.901;   0.010;;;;;;;;;;;;;;;;;;
2015-05-29T00:07:19.743Z;0;2.1410e+01;0;     0.129;  1279.544;  41573.539; 0;  41553.844;  41573.539;  42198.539;  40918.996;216;   7.043; 349.437;;; 137.020; 336.946;  21.061;   0.080;  -0.229;   7.043;   7.036;  -5.059;   4.900;   0.010;;;;;;;;;;;;;;;;;;
2015-05-29T00:07:35.743Z;0;2.0990e+01;0;     0.125;  1279.544;  41164.172; 0;  41144.281;  41164.172;  41789.027;  40509.480;216;   7.045; 349.566;;; 137.151; 337.075;  21.062;   0.080;  -0.230;   7.045;   7.038;  -5.062;   4.900;   0.010;;;;;;;;;;;;;;;;;;
2015-05-29T00:07:51.743Z;0;2.2600e+01;0;     0.137;  1279.544;  42707.887; 0;  42688.715;  42707.887;  43333.281;  42053.738;216;   7.047; 349.695;;; 137.283; 337.204;  21.063;   0.080;  -0.230;   7.047;   7.040;  -5.065;   4.900;   0.010;;;;;;;;;;;;;;;;;;
2015-05-29T00:08:07.743Z;0;1.9520e+01;0;     0.134;  1246.364;  39692.285; 0;  39672.711;  39692.285;  40300.789;  39054.426;216;   7.049; 349.824;;; 137.415; 337.333;  21.065;   0.080;  -0.230;   7.049;   7.042;  -5.069;   4.899;   0.010;;;;;;;;;;;;;;;;;;
2015-05-29T00:08:23.743Z;0;2.0870e+01;0;     0.180;  1246.364;  41047.574; 0;  41028.648;  41047.574;  41656.562;  40410.199;216;   7.051; 349.953;;; 137.547; 337.463;  21.066;   0.079;  -0.230;   7.051;   7.044;  -5.072;   4.899;   0.010;;;;;;;;;;;;;;;;;;
2015-05-29T00:08:55.743Z;0;2.5150e+01;0;     0.133;  1246.364;  45049.781; 0;  45032.535;  45049.781;  45660.031;  44413.668;216;   7.055; 350.212;;; 137.811; 337.721;  21.069;   0.079;  -0.230;   7.055;   7.048;  -5.078;   4.898;   0.010;;;;;;;;;;;;;;;;;;
2015-05-29T00:09:11.743Z;0;2.2200e+01;0;     0.144;  1250.956;  42333.828; 0;  42315.340;  42333.828;  42945.441;  41694.484;216;   7.057; 350.341;;; 137.943; 337.851;  21.070;   0.079;  -0.230;   7.057;   7.050;  -5.082;   4.897;   0.010;;;;;;;;;;;;;;;;;;
2015-05-29T00:09:27.743Z;0;2.0910e+01;0;     0.140;  1250.956;  41082.934; 0;  41063.883;  41082.934;  41694.125;  40443.168;216;   7.059; 350.470;;; 138.075; 337.980;  21.072;   0.079;  -0.230;   7.059;   7.052;  -5.085;   4.897;   0.010;;;;;;;;;;;;;;;;;;
2015-05-29T00:09:43.743Z;0;2.0800e+01;0;     0.152;  1250.956;  40975.535; 0;  40956.434;  40975.535;  41586.688;  40335.734;216;   7.061; 350.599;;; 138.207; 338.110;  21.073;   0.079;  -0.230;   7.061;   7.054;  -5.088;   4.896;   0.010;;;;;;;;;;;;;;;;;;
2015-05-29T00:09:59.742Z;0;2.0530e+01;0;     0.136;  1250.956;  40705.863; 0;  40686.637;  40705.863;  41316.922;  40065.965;216;   7.063; 350.728;;; 138.339; 338.240;  21.075;   0.079;  -0.230;   7.063;   7.056;  -5.091;   4.896;   0.010;;;;;;;;;;;;;;;;;;
2015-05-29T00:10:15.742Z;0;2.0020e+01;0;     0.144;  1262.576;  40203.934; 0;  40184.105;  40203.934;  40820.352;  39557.773;216;   7.065; 350.857;;; 138.469; 338.368;  21.076;   0.079;  -0.230;   7.065;   7.058;  -5.094;   4.895;   0.010;;;;;;;;;;;;;;;;;;
2015-05-29T00:10:31.742Z;0;2.0790e+01;0;     0.126;  1262.576;  40959.805; 0;  40940.340;  40959.805;  41576.496;  40313.918;216;   7.067; 350.987;;; 138.599; 338.496;  21.077;   0.078;  -0.230;   7.067;   7.060;  -5.098;   4.895;   0.010;;;;;;;;;;;;;;;;;;
2015-05-29T00:10:47.742Z;0;1.9630e+01;0;     0.140;  1262.576;  39807.844; 0;  39787.816;  39807.844;  40424.113;  39161.535;216;   7.069; 351.116;;; 138.728; 338.625;  21.079;   0.078;  -0.230;   7.069;   7.062;  -5.101;   4.894;   0.010;;;;;;;;;;;;;;;;;;
2015-05-29T00:11:03.742Z;0;2.2450e+01;0;     0.161;  1250.788;  42562.445; 0;  42544.062;  42562.445;  43174.055;  41923.266;216;   7.071; 351.245;;; 138.858; 338.753;  21.080;   0.078;  -0.230;   7.071;   7.064;  -5.104;   4.894;   0.010;;;;;;;;;;;;;;;;;;
2015-05-29T00:11:19.742Z;0;2.0840e+01;0;     0.136;  1250.788;  41011.648; 0;  40992.570;  41011.648;  41622.734;  40371.945;216;   7.073; 351.374;;; 138.987; 338.882;  21.082;   0.078;  -0.230;   7.073;   7.066;  -5.107;   4.893;   0.010;;;;;;;;;;;;;;;;;;
2015-05-29T00:11:35.742Z;0;1.9560e+01;0;     0.134;  1250.788;  39735.750; 0;  39716.059;  39735.750;  40346.375;  39095.590;216;   7.075; 351.504;;; 139.117; 339.010;  21.083;   0.078;  -0.230;   7.075;   7.068;  -5.111;   4.893;   0.010;;;;;;;;;;;;;;;;;;
2015-05-29T00:11:51.742Z;0;2.0910e+01;0;     0.139;  1250.788;  41079.309; 0;  41060.262;  41079.309;  41690.418;  40439.629;216;   7.077; 351.633;;; 139.246; 339.139;  21.084;   0.078;  -0.230;   7.077;   7.070;  -5.114;   4.892;   0.010;;;;;;;;;;;;;;;;;;
2015-05-29T00:12:07.742Z;0;2.0910e+01;0;     0.123;  1252.244;  41081.879; 0;  41062.789;  41081.879;  41693.684;  40441.441;216;   7.079; 351.762;;; 139.375; 339.267;  21.086;   0.078;  -0.230;   7.079;   7.072;  -5.117;   4.892;   0.010;;;;;;;;;;;;;;;;;;
2015-05-29T00:12:23.742Z;0;2.0820e+01;0;     0.126;  1252.244;  40994.434; 0;  40975.305;  40994.434;  41606.207;  40353.965;216;   7.081; 351.891;;; 139.505; 339.395;  21.087;   0.078;  -0.230;   7.081;   7.074;  -5.120;   4.891;   0.010;;;;;;;;;;;;;;;;;;
2015-05-29T00:12:39.741Z;0;2.0900e+01;0;     0.127;  1252.244;  41075.754; 0;  41056.660;  41075.754;  41687.559;  40435.312;216;   7.083; 352.021;;; 139.634; 339.524;  21.089;   0.078;  -0.230;   7.083;   7.076;  -5.123;   4.891;   0.010;;;;;;;;;;;;;;;;;;
2015-05-29T00:12:55.741Z;0;2.0800e+01;0;     0.127;  1252.244;  40976.539; 0;  40957.398;  40976.539;  41588.309;  40336.062;216;   7.085; 352.150;;; 139.763; 339.652;  21.090;   0.077;  -0.230;   7.085;   7.078;  -5.127;   4.890;   0.010;;;;;;;;;;;;;;;;;;
2015-05-29T00:13:11.741Z;0;2.0450e+01;0;     0.150;  1256.332;  40625.848; 0;  40606.418;  40625.848;  41239.441;  39983.109;216;   7.087; 352.279;;; 139.892; 339.781;  21.091;   0.077;  -0.230;   7.087;   7.080;  -5.130;   4.890;   0.010;;;;;;;;;;;;;;;;;;
2015-05-29T00:13:27.741Z;0;1.9330e+01;0;     0.153;  1256.332;  39502.727; 0;  39482.742;  39502.727;  40115.906;  38859.574;216;   7.089; 352.409;;; 140.021; 339.910;  21.093;   0.077;  -0.230;   7.089;   7.082;  -5.133;   4.889;   0.010;;;;;;;;;;;;;;;;;;
2015-05-29T00:13:43.741Z;0;1.9140e+01;0;     0.145;  1256.332;  39309.824; 0;  39289.742;  39309.824;  39922.930;  38666.598;216;   7.091; 352.538;;; 140.150; 340.038;  21.094;   0.077;  -0.230;   7.091;   7.084;  -5.136;   4.889;   0.010;;;;;;;;;;;;;;;;;;
2015-05-29T00:13:59.741Z;0;1.8970e+01;0;     0.161;  1256.332;  39134.406; 0;  39114.234;  39134.406;  39747.445;  38491.113;216;   7.093; 352.667;;; 140.279; 340.167;  21.096;   0.077;  -0.230;   7.093;   7.086;  -5.139;   4.888;   0.010;;;;;;;;;;;;;;;;;;
2015-05-29T00:14:15.741Z;0;1.9400e+01;0;     0.141;  1241.632;  39567.922; 0;  39548.438;  39567.922;  40174.125;  38932.492;216;   7.095; 352.797;;; 140.407; 340.295;  21.097;   0.077;  -0.230;   7.095;   7.088;  -5.143;   4.888;   0.010;;;;;;;;;;;;;;;;;;
2015-05-29T00:14:31.741Z;0;2.0550e+01;0;     0.138;  1241.632;  40724.676; 0;  40705.742;  40724.676;  41331.293;  40089.660;216;   7.097; 352.926;;; 140.536; 340.424;  21.098;   0.077;  -0.230;   7.097;   7.089;  -5.146;   4.887;   0.009;;;;;;;;;;;;;;;;;;
2015-05-29T00:14:47.741Z;0;2.1420e+01;0;     0.131;  1241.632;  41575.148; 0;  41556.605;  41575.148;  42182.059;  40940.426;216;   7.099; 353.055;;; 140.665; 340.552;  21.100;   0.077;  -0.231;   7.099;   7.091;  -5.149;   4.887;   0.009;;;;;;;;;;;;;;;;;;
2015-05-29T00:15:03.741Z;0;2.0920e+01;0;     0.134;  1237.824;  41087.973; 0;  41069.324;  41087.973;  41692.898;  40455.074;216;   7.101; 353.185;;; 140.793; 340.681;  21.101;   0.076;  -0.231;   7.101;   7.093;  -5.152;   4.886;   0.009;;;;;;;;;;;;;;;;;;
2015-05-29T00:15:19.740Z;0;1.9090e+01;0;     0.145;  1237.824;  39257.086; 0;  39237.566;  39257.086;  39861.359;  38623.535;216;   7.103; 353.314;;; 140.922; 340.810;  21.102;   0.076;  -0.231;   7.103;   7.095;  -5.156;   4.886;   0.009;;;;;;;;;;;;;;;;;;
2015-05-29T00:15:35.740Z;0;2.0850e+01;0;     0.128;  1237.824;  41019.598; 0;  41000.918;  41019.598;  41624.500;  40386.676;216;   7.105; 353.444;;; 141.051; 340.938;  21.104;   0.076;  -0.231;   7.105;   7.097;  -5.159;   4.885;   0.009;;;;;;;;;;;;;;;;;;
2015-05-29T00:15:51.740Z;0;2.2400e+01;0;     0.145;  1237.824;  42515.629; 0;  42497.605;  42515.629;  43121.023;  41883.199;216;   7.107; 353.573;;; 141.179; 341.067;  21.105;   0.076;  -0.231;   7.107;   7.099;  -5.162;   4.885;   0.009;;;;;;;;;;;;;;;;;;
2015-05-29T00:16:07.740Z;0;2.0640e+01;0;     0.125;  1217.328;  40815.617; 0;  40797.461;  40815.617;  41410.664;  40193.336;216;   7.109; 353.702;;; 141.307; 341.195;  21.107;   0.076;  -0.231;   7.109;   7.101;  -5.165;   4.884;   0.009;;;;;;;;;;;;;;;;;;
2015-05-29T00:16:23.740Z;0;2.1380e+01;0;     0.135;  1217.328;  41537.344; 0;  41519.500;  41537.344;  42132.629;  40915.301;216;   7.111; 353.832;;; 141.436; 341.324;  21.108;   0.076;  -0.231;   7.111;   7.103;  -5.168;   4.884;   0.009;;;;;;;;;;;;;;;;;;
2015-05-29T00:16:39.740Z;0;1.9170e+01;0;     0.132;  1217.328;  39340.852; 0;  39322.012;  39340.852;  39935.387;  38718.059;216;   7.113; 353.961;;; 141.564; 341.453;  21.109;   0.076;  -0.231;   7.113;   7.105;  -5.172;   4.883;   0.009;;;;;;;;;;;;;;;;;;
2015-05-29T00:16:55.740Z;0;2.0310e+01;0;     0.144;  1217.328;  40490.438; 0;  40472.133;  40490.438;  41085.375;  39868.047;216;   7.115; 354.091;;; 141.692; 341.582;  21.111;   0.076;  -0.231;   7.115;   7.107;  -5.175;   4.883;   0.009;;;;;;;;;;;;;;;;;;
2015-05-29T00:17:11.740Z;0;2.0950e+01;0;     0.125;  1198.176;  41123.496; 0;  41106.039;  41123.496;  41709.492;  40511.316;216;   7.117; 354.220;;; 141.820; 341.710;  21.112;   0.075;  -0.231;   7.117;   7.109;  -5.178;   4.882;   0.009;;;;;;;;;;;;;;;;;;
2015-05-29T00:17:27.740Z;0;2.1000e+01;0;     0.136;  1198.176;  41170.148; 0;  41152.711;  41170.148;  41756.156;  40557.980;216;   7.119; 354.350;;; 141.948; 341.839;  21.114;   0.075;  -0.231;   7.119;   7.111;  -5.181;   4.882;   0.009;;;;;;;;;;;;;;;;;;
2015-05-29T00:17:43.739Z;0;2.1140e+01;0;     0.125;  1198.176;  41303.762; 0;  41286.379;  41303.762;  41889.812;  40691.637;216;   7.121; 354.479;;; 142.076; 341.968;  21.115;   0.075;  -0.231;   7.121;   7.113;  -5.184;   4.881;   0.009;;;;;;;;;;;;;;;;;;
2015-05-29T00:17:59.739Z;0;2.0480e+01;0;     0.131;  1198.176;  40654.355; 0;  40636.695;  40654.355;  41240.199;  40042.023;216;   7.123; 354.609;;; 142.204; 342.096;  21.116;   0.075;  -0.231;   7.123;   7.115;  -5.188;   4.881;   0.009;;;;;;;;;;;;;;;;;;
2015-05-29T00:18:15.739Z;0;2.0790e+01;0;     0.139;  1209.124;  40958.758; 0;  40940.906;  40958.758;  41549.934;  40340.809;216;   7.124; 354.738;;; 142.332; 342.225;  21.118;   0.075;  -0.231;   7.125;   7.117;  -5.191;   4.880;   0.009;;;;;;;;;;;;;;;;;;
2015-05-29T00:18:31.739Z;0;1.9150e+01;0;     0.137;  1209.124;  39313.039; 0;  39294.441;  39313.039;  39903.652;  38694.527;216;   7.126; 354.868;;; 142.460; 342.354;  21.119;   0.075;  -0.231;   7.126;   7.119;  -5.194;   4.880;   0.009;;;;;;;;;;;;;;;;;;
2015-05-29T00:19:03.739Z;0;2.2410e+01;0;     0.150;  1219.988;  42528.441; 0;  42510.938;  42528.441;  43125.309;  41905.320;216;   7.130; 355.127;;; 142.716; 342.611;  21.122;   0.075;  -0.231;   7.130;   7.123;  -5.200;   4.879;   0.009;;;;;;;;;;;;;;;;;;
2015-05-29T00:19:19.739Z;0;1.8980e+01;0;     0.145;  1219.988;  39141.117; 0;  39122.102;  39141.117;  39736.848;  38516.859;216;   7.132; 355.257;;; 142.843; 342.740;  21.123;   0.074;  -0.231;   7.132;   7.125;  -5.204;   4.878;   0.009;;;;;;;;;;;;;;;;;;
2015-05-29T00:19:35.739Z;0;1.8740e+01;0;     0.154;  1219.988;  38896.223; 0;  38877.086;  38896.223;  39491.863;  38271.875;216;   7.134; 355.386;;; 142.971; 342.869;  21.124;   0.074;  -0.231;   7.134;   7.127;  -5.207;   4.878;   0.009;;;;;;;;;;;;;;;;;;
2015-05-29T00:19:51.739Z;0;1.7720e+01;0;     0.144;  1219.988;  37821.816; 0;  37802.137;  37821.816;  38417.051;  37197.062;216;   7.136; 355.516;;; 143.099; 342.998;  21.126;   0.074;  -0.231;   7.136;   7.129;  -5.210;   4.877;   0.009;;;;;;;;;;;;;;;;;;
2015-05-29T00:20:07.739Z;0;1.8820e+01;0;     0.170;  1218.532;  38971.465; 0;  38952.410;  38971.465;  39566.441;  38347.910;216;   7.138; 355.645;;; 143.227; 343.126;  21.127;   0.074;  -0.231;   7.138;   7.131;  -5.213;   4.877;   0.009;;;;;;;;;;;;;;;;;;
2015-05-29T00:20:23.738Z;0;1.9230e+01;0;     0.137;  1218.532;  39396.449; 0;  39377.602;  39396.449;  39991.578;  38773.047;216;   7.140; 355.775;;; 143.355; 343.253;  21.129;   0.074;  -0.231;   7.140;   7.133;  -5.216;   4.876;   0.009;;;;;;;;;;;;;;;;;;
2015-05-29T00:20:39.738Z;0;2.0300e+01;0;     0.152;  1218.532;  40482.742; 0;  40464.398;  40482.742;  41078.250;  39859.719;216;   7.142; 355.905;;; 143.484; 343.381;  21.130;   0.074;  -0.231;   7.142;   7.135;  -5.220;   4.876;   0.009;;;;;;;;;;;;;;;;;;
2015-05-29T00:20:55.738Z;0;2.0450e+01;0;     0.150;  1218.532;  40625.848; 0;  40607.570;  40625.848;  41221.406;  40002.875;216;   7.144; 356.034;;; 143.613; 343.508;  21.131;   0.074;  -0.231;   7.144;   7.137;  -5.223;   4.875;   0.009;;;;;;;;;;;;;;;;;;
2015-05-29T00:21:11.738Z;0;1.8890e+01;0;     0.135;  1221.668;  39047.543; 0;  39028.426;  39047.543;  39644.043;  38422.375;216;   7.146; 356.164;;; 143.742; 343.635;  21.133;   0.074;  -0.231;   7.146;   7.139;  -5.226;   4.875;   0.009;;;;;;;;;;;;;;;;;;
2015-05-29T00:21:43.738Z;0;1.8900e+01;0;     0.150;  1221.668;  39058.762; 0;  39039.652;  39058.762;  39655.266;  38433.598;216;   7.150; 356.423;;; 144.000; 343.890;  21.135;   0.073;  -0.231;   7.150;   7.143;  -5.232;   4.874;   0.009;;;;;;;;;;;;;;;;;;
2015-05-29T00:21:59.738Z;0;1.8980e+01;0;     0.145;  1221.668;  39141.117; 0;  39122.047;  39141.117;  39737.648;  38515.980;216;   7.152; 356.553;;; 144.129; 344.017;  21.137;   0.073;  -0.231;   7.152;   7.145;  -5.236;   4.873;   0.009;;;;;;;;;;;;;;;;;;
2015-05-29T00:22:15.738Z;0;1.9140e+01;0;     0.141;  1203.496;  39303.340; 0;  39284.910;  39303.340;  39891.266;  38687.770;216;   7.154; 356.683;;; 144.258; 344.144;  21.138;   0.073;  -0.232;   7.154;   7.147;  -5.239;   4.873;   0.009;;;;;;;;;;;;;;;;;;
2015-05-29T00:22:47.738Z;0;1.8960e+01;0;     0.134;  1203.496;  39119.387; 0;  39100.871;  39119.387;  39707.246;  38503.750;216;   7.158; 356.942;;; 144.516; 344.398;  21.141;   0.073;  -0.232;   7.158;   7.151;  -5.245;   4.872;   0.009;;;;;;;;;;;;;;;;;;
2015-05-29T00:23:03.737Z;0;1.9120e+01;0;     0.127;  1213.184;  39280.477; 0;  39261.738;  39280.477;  39873.016;  38659.832;216;   7.160; 357.072;;; 144.644; 344.524;  21.142;   0.073;  -0.232;   7.160;   7.153;  -5.248;   4.871;   0.009;;;;;;;;;;;;;;;;;;
2015-05-29T00:23:19.737Z;0;1.7670e+01;0;     0.144;  1213.184;  37766.434; 0;  37746.941;  37766.434;  38358.410;  37145.223;216;   7.162; 357.202;;; 144.773; 344.651;  21.144;   0.073;  -0.232;   7.162;   7.155;  -5.251;   4.870;   0.009;;;;;;;;;;;;;;;;;;
2015-05-29T00:23:35.737Z;0;1.8500e+01;0;     0.159;  1213.184;  38638.934; 0;  38619.883;  38638.934;  39231.238;  38018.055;216;   7.164; 357.331;;; 144.902; 344.778;  21.145;   0.073;  -0.232;   7.164;   7.157;  -5.255;   4.870;   0.009;;;;;;;;;;;;;;;;;;
2015-05-29T00:23:51.737Z;0;1.9330e+01;0;     0.131;  1213.184;  39497.723; 0;  39479.086;  39497.723;  40090.340;  38877.156;216;   7.166; 357.461;;; 145.031; 344.905;  21.146;   0.072;  -0.232;   7.166;   7.159;  -5.258;   4.869;   0.009;;;;;;;;;;;;;;;;;;